• In Latvia
  • List of Countries
  • For 7 days
  • Water Temperature
  • Satellite Maps
  • Weather Map
  • Weather Widgets
  • user-avatar
    Login

    Hourly Weather Mendoza

    Today, 21 November, Tuesday

    Time Temperature Precipitation Wind Pressure Humidity
    00:00 +18°C° 0 mm 2 mps 699 mmHg 41%
    01:00 +17°C° 0 mm 2 mps 699 mmHg 41%
    02:00 +17°C° 0 mm 2 mps 699 mmHg 41%
    03:00 +16°C° 0 mm 1 mps 699 mmHg 41%
    04:00 +16°C° 0 mm 1 mps 699 mmHg 41%
    05:00 +18°C° 0 mm 1 mps 700 mmHg 37%
    06:00 +19°C° 0 mm 2 mps 700 mmHg 34%
    07:00 +20°C° 0 mm 2 mps 700 mmHg 31%
    08:00 +21°C° 0 mm 2 mps 700 mmHg 28%
    09:00 +24°C° 0 mm 3 mps 700 mmHg 26%
    10:00 +25°C° 0 mm 4 mps 700 mmHg 23%
    11:00 +26°C° 0 mm 4 mps 700 mmHg 21%
    12:00 +27°C° 0 mm 4 mps 700 mmHg 20%
    13:00 +28°C° 0 mm 4 mps 699 mmHg 18%
    14:00 +29°C° 0 mm 4 mps 699 mmHg 18%
    15:00 +29°C° 0 mm 4 mps 698 mmHg 18%
    16:00 +29°C° 0 mm 4 mps 698 mmHg 17%
    17:00 +28°C° 0 mm 3 mps 698 mmHg 18%
    18:00 +27°C° 0 mm 3 mps 699 mmHg 19%
    19:00 +26°C° 0 mm 2 mps 699 mmHg 20%
    20:00 +25°C° 0 mm 2 mps 699 mmHg 21%
    21:00 +25°C° 0 mm 2 mps 699 mmHg 21%
    22:00 +24°C° 0 mm 2 mps 699 mmHg 22%
    23:00 +23°C° 0 mm 2 mps 699 mmHg 22%

    Tomorrow, 22 November, Wednesday

    Time Temperature Precipitation Wind Pressure Humidity
    00:00 +21°C° 0 mm 2 mps 698 mmHg 23%
    01:00 +21°C° 0 mm 2 mps 698 mmHg 23%
    02:00 +20°C° 0 mm 2 mps 697 mmHg 24%
    03:00 +19°C° 0 mm 2 mps 697 mmHg 25%
    04:00 +20°C° 0 mm 1 mps 697 mmHg 26%
    05:00 +21°C° 0 mm 1 mps 697 mmHg 23%
    06:00 +23°C° 0 mm 2 mps 698 mmHg 21%
    07:00 +25°C° 0 mm 2 mps 698 mmHg 18%
    08:00 +27°C° 0 mm 3 mps 698 mmHg 17%
    09:00 +29°C° 0 mm 4 mps 698 mmHg 16%
    10:00 +30°C° 0 mm 5 mps 698 mmHg 15%
    11:00 +32°C° 0 mm 5 mps 697 mmHg 15%
    12:00 +33°C° 0 mm 5 mps 696 mmHg 14%
    13:00 +34°C° 0 mm 5 mps 696 mmHg 14%
    14:00 +34°C° 0 mm 5 mps 695 mmHg 14%
    15:00 +34°C° 0 mm 4 mps 695 mmHg 14%
    16:00 +34°C° 0 mm 4 mps 694 mmHg 14%
    17:00 +33°C° 0 mm 3 mps 695 mmHg 16%
    18:00 +31°C° 0 mm 3 mps 695 mmHg 17%
    19:00 +29°C° 0 mm 2 mps 695 mmHg 18%
    20:00 +29°C° 0 mm 2 mps 695 mmHg 19%
    21:00 +28°C° 0 mm 3 mps 695 mmHg 19%
    22:00 +27°C° 0 mm 3 mps 696 mmHg 20%
    23:00 +26°C° 0 mm 3 mps 695 mmHg 20%

    Day after tomorrow, 23 November, Thursday

    Time Temperature Precipitation Wind Pressure Humidity
    00:00 +26°C° 0 mm 3 mps 695 mmHg 20%
    01:00 +25°C° 0 mm 3 mps 694 mmHg 21%
    02:00 +24°C° 0 mm 3 mps 694 mmHg 21%
    03:00 +22°C° 0 mm 3 mps 694 mmHg 21%
    04:00 +22°C° 0 mm 3 mps 694 mmHg 22%
    05:00 +24°C° 0 mm 3 mps 695 mmHg 20%
    06:00 +26°C° 0 mm 3 mps 695 mmHg 19%
    07:00 +28°C° 0 mm 4 mps 696 mmHg 18%
    08:00 +29°C° 0 mm 4 mps 696 mmHg 17%
    09:00 +30°C° 0 mm 4 mps 696 mmHg 16%
    10:00 +33°C° 0 mm 4 mps 696 mmHg 15%
    11:00 +33°C° 0 mm 4 mps 696 mmHg 14%
    12:00 +34°C° 0 mm 4 mps 695 mmHg 14%
    13:00 +35°C° 0 mm 4 mps 695 mmHg 14%
    14:00 +35°C° 0 mm 4 mps 695 mmHg 14%
    15:00 +35°C° 0 mm 4 mps 695 mmHg 14%
    16:00 +35°C° 0 mm 4 mps 694 mmHg 15%
    17:00 +34°C° 0 mm 5 mps 695 mmHg 17%
    18:00 +32°C° 0 mm 6 mps 695 mmHg 20%
    19:00 +30°C° 0 mm 6 mps 696 mmHg 22%
    20:00 +29°C° 0 mm 6 mps 696 mmHg 23%
    21:00 +27°C° 0 mm 6 mps 696 mmHg 24%
    22:00 +26°C° 0 mm 5 mps 697 mmHg 25%
    23:00 +25°C° 0 mm 5 mps 697 mmHg 28%

    24 November, Friday

    Time Temperature Precipitation Wind Pressure Humidity
    00:00 +23°C° 0 mm 5 mps 696 mmHg 31%
    01:00 +22°C° 0 mm 5 mps 696 mmHg 34%
    02:00 +21°C° 0 mm 5 mps 696 mmHg 37%
    03:00 +21°C° 0 mm 5 mps 695 mmHg 40%
    04:00 +20°C° 0 mm 4 mps 695 mmHg 43%
    05:00 +20°C° 0 mm 5 mps 696 mmHg 42%
    06:00 +21°C° 0 mm 5 mps 696 mmHg 41%
    07:00 +22°C° 0 mm 5 mps 696 mmHg 40%
    08:00 +23°C° 0 mm 5 mps 696 mmHg 36%
    09:00 +26°C° 0 mm 6 mps 696 mmHg 32%
    10:00 +28°C° 0 mm 6 mps 696 mmHg 27%
    11:00 +29°C° 0 mm 6 mps 696 mmHg 25%
    12:00 +30°C° 0 mm 6 mps 696 mmHg 23%
    13:00 +32°C° 0 mm 6 mps 696 mmHg 20%
    14:00 +32°C° 0 mm 6 mps 696 mmHg 19%
    15:00 +32°C° 0 mm 6 mps 696 mmHg 18%
    16:00 +32°C° 0 mm 5 mps 696 mmHg 17%
    17:00 +30°C° 0 mm 5 mps 696 mmHg 20%
    18:00 +29°C° 0 mm 4 mps 697 mmHg 22%
    19:00 +28°C° 0 mm 3 mps 697 mmHg 25%
    20:00 +27°C° 0 mm 3 mps 698 mmHg 28%
    21:00 +26°C° 0 mm 3 mps 698 mmHg 32%
    22:00 +25°C° 0 mm 2 mps 699 mmHg 36%
    23:00 +24°C° 0 mm 2 mps 699 mmHg 39%

    25 November, Saturday

    Time Temperature Precipitation Wind Pressure Humidity
    00:00 +23°C° 0 mm 2 mps 698 mmHg 41%
    01:00 +23°C° 0 mm 2 mps 698 mmHg 44%
    02:00 +21°C° 0 mm 2 mps 698 mmHg 44%
    03:00 +21°C° 0 mm 2 mps 698 mmHg 44%
    04:00 +20°C° 0 mm 2 mps 698 mmHg 44%
    05:00 +23°C° 0 mm 2 mps 699 mmHg 38%
    06:00 +24°C° 0 mm 2 mps 699 mmHg 32%
    07:00 +26°C° 0 mm 2 mps 700 mmHg 26%
    08:00 +27°C° 0 mm 2 mps 699 mmHg 23%
    09:00 +29°C° 0 mm 3 mps 699 mmHg 20%
    10:00 +30°C° 0 mm 4 mps 699 mmHg 16%
    11:00 +32°C° 0 mm 4 mps 698 mmHg 16%
    12:00 +33°C° 0 mm 4 mps 698 mmHg 15%
    13:00 +34°C° 0 mm 4 mps 697 mmHg 15%
    14:00 +34°C° 0 mm 4 mps 697 mmHg 15%
    15:00 +34°C° 0 mm 4 mps 696 mmHg 16%
    16:00 +34°C° 0 mm 4 mps 696 mmHg 16%
    17:00 +33°C° 0 mm 4 mps 696 mmHg 18%
    18:00 +31°C° 0 mm 3 mps 696 mmHg 20%
    19:00 +30°C° 0 mm 3 mps 696 mmHg 21%
    20:00 +29°C° 0 mm 2 mps 696 mmHg 22%
    21:00 +28°C° 0 mm 2 mps 697 mmHg 24%
    22:00 +28°C° 0 mm 2 mps 697 mmHg 25%
    23:00 +27°C° 0 mm 2 mps 696 mmHg 25%

    26 November, Sunday

    Time Temperature Precipitation Wind Pressure Humidity
    00:00 +26°C° 0 mm 3 mps 695 mmHg 26%
    01:00 +26°C° 0 mm 3 mps 695 mmHg 26%
    02:00 +25°C° 0 mm 3 mps 694 mmHg 26%
    03:00 +24°C° 0 mm 3 mps 694 mmHg 26%
    04:00 +24°C° 0 mm 2 mps 694 mmHg 26%
    05:00 +25°C° 0 mm 3 mps 694 mmHg 23%
    06:00 +27°C° 0 mm 3 mps 694 mmHg 21%
    07:00 +29°C° 0 mm 3 mps 695 mmHg 18%
    08:00 +30°C° 0 mm 4 mps 694 mmHg 16%
    09:00 +33°C° 0 mm 5 mps 694 mmHg 14%
    10:00 +35°C° 0 mm 5 mps 694 mmHg 13%
    11:00 +35°C° 0 mm 5 mps 693 mmHg 12%
    12:00 +36°C° 0 mm 5 mps 692 mmHg 11%
    13:00 +37°C° 0 mm 5 mps 692 mmHg 10%
    14:00 +37°C° 0 mm 5 mps 691 mmHg 9%
    15:00 +37°C° 0 mm 5 mps 691 mmHg 9%
    16:00 +37°C° 0 mm 5 mps 691 mmHg 8%
    17:00 +36°C° 0 mm 5 mps 691 mmHg 9%
    18:00 +34°C° 0 mm 5 mps 691 mmHg 11%
    19:00 +33°C° 0 mm 5 mps 691 mmHg 12%
    20:00 +32°C° 0 mm 6 mps 691 mmHg 13%
    21:00 +30°C° 0 mm 6 mps 691 mmHg 14%
    22:00 +29°C° 0 mm 7 mps 691 mmHg 14%
    23:00 +28°C° 0 mm 7 mps 691 mmHg 19%
    Show more